Fredericksburg, VA

5:40 AM EST on November 21, 2019 (GMT -0500)
Shannon

Weather History for KEZF - September, 2019

Change the Weather History Date:

Saturday, September 14, 2019

  Actual Average (WUND) Record (WUND)
Temperature  
Mean Temperature 74 °F -  
Max Temperature 80 °F - - (-1)
Min Temperature 67 °F - - (-1)
Cooling Degree Days 8    
Growing Degree Days 24 (Base 50)    
Moisture  
Dew Point 68 °F    
Average Humidity 83    
Maximum Humidity 94    
Minimum Humidity 69    
Precipitation  
Precipitation 0.00 in - - ()
Sea Level Pressure  
Sea Level Pressure 30.24 in    
Wind  
Wind Speed 3 mph ()    
Max Wind Speed 9 mph    
Max Gust Speed -    
Visibility 10.0 miles    
Events      
Averages and records for this station are not official NWS values.
T = Trace of Precipitation, MM = Missing Value Source: Averaged Metar Reports

Daily Weather History Graph

Daily Weather History Graph

Search for Another Location

Airport or City:

Astronomy

Sep. 14, 2019 Rise Set
Actual Time 6:50 AM EDT 7:19 PM EDT
Civil Twilight 6:23 AM EDT 7:46 PM EDT
Nautical Twilight 5:52 AM EDT 8:17 PM EDT
Astronomical Twilight 5:20 AM EDT 8:49 PM EDT
Moon 7:59 PM EDT (9/14) 7:02 AM EDT (9/14)
Length of Visible Light 13h 22m
Length of Day
12h 29m
Full, 100% of the Moon is Illuminated
Sep 14
Full
Sep 21
Last Quarter
Sep 28
New
Oct 5
First Quarter
Oct 13
Full

Hourly Weather History & Observations

Time (EDT) Temp. Heat Index Dew Point Humidity Pressure Visibility Wind Dir Wind Speed Gust Speed Precip Events Conditions
12:15 AM 69.8 °F - 64.8 °F 84% 30.34 in 10.0 mi Calm Calm - N/A   Overcast
12:35 AM 69.4 °F - 64.6 °F 84% 30.33 in 10.0 mi East 4.6 mph - N/A   Overcast
12:55 AM 69.3 °F - 64.4 °F 84% 30.33 in 10.0 mi Calm Calm - N/A   Overcast
1:15 AM 69.1 °F - 64.4 °F 85% 30.34 in 10.0 mi ESE 4.6 mph - N/A   Overcast
1:35 AM 68.9 °F - 64.4 °F 86% 30.33 in 10.0 mi East 3.5 mph - N/A   Overcast
1:55 AM 68.5 °F - 64.0 °F 85% 30.32 in 10.0 mi East 4.6 mph - N/A   Overcast
2:15 AM 68.5 °F - 64.4 °F 87% 30.31 in 10.0 mi Calm Calm - N/A   Overcast
2:35 AM 68.2 °F - 64.6 °F 88% 30.30 in 10.0 mi Calm Calm - N/A   Overcast
2:55 AM 68.4 °F - 64.6 °F 88% 30.30 in 10.0 mi Calm Calm - N/A   Overcast
3:15 AM 68.4 °F - 65.3 °F 90% 30.29 in 10.0 mi ESE 3.5 mph - N/A   Overcast
3:35 AM 68.2 °F - 64.9 °F 89% 30.28 in 10.0 mi ESE 3.5 mph - N/A   Overcast
3:55 AM 68.0 °F - 65.3 °F 91% 30.28 in 10.0 mi ESE 3.5 mph - N/A   Overcast
4:15 AM 67.6 °F - 64.6 °F 90% 30.28 in 10.0 mi Calm Calm - N/A   Overcast
4:35 AM 68.0 °F - 64.4 °F 88% 30.28 in 10.0 mi Calm Calm - N/A   Overcast
4:55 AM 67.6 °F - 64.4 °F 89% 30.27 in 10.0 mi ENE 3.5 mph - N/A   Overcast
5:15 AM 67.5 °F - 64.6 °F 90% 30.28 in 10.0 mi Calm Calm - N/A   Overcast
5:35 AM 67.6 °F - 64.8 °F 90% 30.28 in 10.0 mi Calm Calm - N/A   Overcast
5:55 AM 67.6 °F - 65.1 °F 92% 30.28 in 10.0 mi Calm Calm - N/A   Overcast
6:15 AM 67.6 °F - 65.3 °F 92% 30.28 in 10.0 mi Calm Calm - N/A   Overcast
6:35 AM 67.5 °F - 65.3 °F 93% 30.28 in 10.0 mi Calm Calm - N/A   Overcast
6:55 AM 67.5 °F - 65.5 °F 93% 30.28 in 10.0 mi Calm Calm - N/A   Overcast
7:15 AM 68.0 °F - 65.3 °F 91% 30.29 in 10.0 mi Calm Calm - N/A   Overcast
7:35 AM 68.0 °F - 65.7 °F 92% 30.29 in 10.0 mi Calm Calm - N/A   Overcast
7:55 AM 67.8 °F - 66.0 °F 94% 30.29 in 10.0 mi Calm Calm - N/A   Overcast
8:15 AM 68.4 °F - 66.0 °F 92% 30.30 in 10.0 mi Calm Calm - N/A   Overcast
8:35 AM 68.9 °F - 66.0 °F 90% 30.30 in 10.0 mi Calm Calm - N/A   Overcast
8:55 AM 69.3 °F - 65.8 °F 89% 30.30 in 10.0 mi Calm Calm - N/A   Overcast
9:15 AM 69.8 °F - 66.2 °F 88% 30.30 in 10.0 mi Calm Calm - N/A   Overcast
9:35 AM 70.2 °F - 66.6 °F 88% 30.30 in 10.0 mi Calm Calm - N/A   Overcast
9:55 AM 71.1 °F - 67.1 °F 87% 30.30 in 10.0 mi SSE 3.5 mph - N/A   Overcast
10:15 AM 72.3 °F - 67.3 °F 84% 30.30 in 10.0 mi Calm Calm - N/A   Overcast
10:55 AM 74.3 °F - 68.0 °F 81% 30.29 in 10.0 mi South 6.9 mph - N/A   Overcast
11:15 AM 75.4 °F - 68.0 °F 78% 30.28 in 10.0 mi SSE 5.8 mph - N/A   Overcast
11:35 AM 76.1 °F - 68.2 °F 76% 30.27 in 10.0 mi South 5.8 mph - N/A   Overcast
11:55 AM 77.0 °F - 68.2 °F 74% 30.27 in 10.0 mi South 8.1 mph - N/A   Overcast
12:15 PM 78.1 °F - 68.7 °F 73% 30.27 in 10.0 mi South 9.2 mph - N/A   Overcast
12:35 PM 79.7 °F - 69.1 °F 70% 30.26 in 10.0 mi South 8.1 mph - N/A   Overcast
12:55 PM 79.0 °F - 69.4 °F 72% 30.25 in 10.0 mi SSW 5.8 mph - N/A   Overcast
1:15 PM 78.1 °F - 69.3 °F 74% 30.25 in 10.0 mi SSW 8.1 mph - N/A   Overcast
1:35 PM 78.8 °F - 69.4 °F 73% 30.24 in 10.0 mi SSW 5.8 mph - N/A   Overcast
1:55 PM 79.9 °F - 69.1 °F 69% 30.23 in 10.0 mi SSW 9.2 mph - N/A   Overcast
2:15 PM 79.3 °F - 69.4 °F 72% 30.22 in 10.0 mi South 8.1 mph - N/A   Overcast
2:35 PM 79.9 °F - 69.3 °F 70% 30.21 in 10.0 mi SSW 8.1 mph - N/A   Overcast
2:55 PM 79.3 °F - 69.6 °F 72% 30.20 in 10.0 mi SSW 8.1 mph - N/A   Overcast
3:15 PM 80.4 °F 83.6 °F 70.0 °F 70% 30.20 in 10.0 mi SSW 9.2 mph - N/A   Overcast
3:35 PM 80.6 °F 83.8 °F 69.6 °F 69% 30.19 in 10.0 mi South 9.2 mph - N/A   Overcast
3:55 PM 80.1 °F 83.2 °F 69.8 °F 71% 30.19 in 10.0 mi SSW 9.2 mph - N/A   Overcast
4:15 PM 80.6 °F 83.8 °F 69.4 °F 69% 30.18 in 10.0 mi South 9.2 mph - N/A   Overcast
4:35 PM 80.4 °F 83.5 °F 69.3 °F 69% 30.18 in 10.0 mi South 6.9 mph - N/A   Overcast
4:55 PM 80.6 °F 83.8 °F 69.6 °F 69% 30.17 in 10.0 mi SSW 8.1 mph - N/A   Overcast
5:15 PM 80.6 °F 83.9 °F 69.8 °F 70% 30.17 in 10.0 mi South 6.9 mph - N/A   Overcast
5:35 PM 80.6 °F 83.8 °F 69.6 °F 69% 30.17 in 10.0 mi South 6.9 mph - N/A   Overcast
5:55 PM 80.6 °F 83.8 °F 69.6 °F 69% 30.18 in 10.0 mi SSW 6.9 mph - N/A   Overcast
6:15 PM 80.4 °F 83.6 °F 70.0 °F 70% 30.17 in 10.0 mi SW 5.8 mph - N/A   Overcast
6:35 PM 79.5 °F - 70.2 °F 73% 30.16 in 10.0 mi SSW 5.8 mph - N/A   Mostly Cloudy
6:55 PM 78.8 °F - 70.3 °F 75% 30.16 in 10.0 mi South 4.6 mph - N/A   Mostly Cloudy
7:15 PM 77.2 °F - 70.5 °F 80% 30.16 in 10.0 mi South 4.6 mph - N/A   Mostly Cloudy
7:35 PM 76.3 °F - 71.4 °F 85% 30.17 in 10.0 mi South 4.6 mph - N/A   Overcast
7:55 PM 75.2 °F - 71.4 °F 88% 30.17 in 10.0 mi SSE 3.5 mph - N/A   Overcast
8:15 PM 74.7 °F - 71.2 °F 89% 30.17 in 10.0 mi South 3.5 mph - N/A   Overcast
8:35 PM 75.9 °F - 71.2 °F 85% 30.17 in 10.0 mi Calm Calm - N/A   Overcast
9:15 PM 74.7 °F - 71.8 °F 91% 30.18 in 10.0 mi Calm Calm - N/A   Overcast
9:35 PM 75.2 °F - 71.8 °F 89% 30.18 in 10.0 mi Calm Calm - N/A   Overcast
9:55 PM 75.6 °F - 72.1 °F 89% 30.18 in 10.0 mi Calm Calm - N/A   Overcast
10:15 PM 74.8 °F - 72.1 °F 91% 30.18 in 10.0 mi Calm Calm - N/A   Overcast
10:35 PM 74.8 °F - 72.5 °F 92% 30.17 in 10.0 mi Calm Calm - N/A   Overcast
10:55 PM 74.7 °F - 72.5 °F 93% 30.17 in 10.0 mi Calm Calm - N/A   Overcast
11:15 PM 74.3 °F - 72.1 °F 93% 30.16 in 10.0 mi ESE 3.5 mph - N/A   Overcast
11:35 PM 73.9 °F - 72.0 °F 93% 30.16 in 10.0 mi Calm Calm - N/A   Overcast
11:55 PM 73.4 °F - 71.2 °F 93% 30.16 in 10.0 mi Calm Calm - N/A   Overcast